ARIANE 1 DEB, 48343

Orbit data source: Space-Track

ARIANE 1 DEB, 48343 is space debris in HEO originally from a launch on Fri, 19 Jun 1981 UTC launched from the French Guiana (FRGUI). Debris objects in space refer to the collection of defunct objects orbiting the Earth. Examples of debris include non-operational satellites, rocket bodies, and fragments generated from explosions, collisions, or faulty payload assembly.

Loading next visibility...
Identifier
48343, 1981-057G
Orbit
HEO
Country
Flag of ESAESA
Related business
Manufacturer
THALA/CNEST
Mission
Spacecraft
Bus & Motor
Unknown
Mass
Unknown
Launch date (UTC)
1981-06-19 (44 years ago)
Launch vehicle
Unknown
Launch site
French Guiana (FRGUI)
Object type
Payload
Rocket body
Debris
Shape & HBR
Unknown shape, 0.4 m
Radar Cross Section
Medium (>0.1 m² and <1 m²)

Expand to show TLE details & history
Last TLE update: 10 hours ago

TLE from 10 hours ago
0 ARIANE 1 DEB
1 48343U 81057G   25308.10746300  .00003867  00000-0  16776-1 0  9994
2 48343  10.8088  82.7458 6714543 152.6637 255.5619  2.87117573123845
Epoch: 2025-11-04T02:34Z
TLE epoch observation values (Epoch: 2025-11-04T02:34:44.803Z)
Latitude
-1.02106°
Longitude
-4.87191°
Altitude
24,061.381 km
Speed
2.67 km/s
True Right ascension
05h 09m 39s
True Declination
-1° 01' 11"
Sunlit
Object was in daylight at epoch
Visualization orbit readout
Latitude
Unknown
Longitude
Unknown
Altitude
Unknown
Speed
Unknown
Apparent Right ascension
Unknown
Apparent Declination
Unknown
Sunlit
N/A
Visualization observer readout
Local Sidereal Time
08:01:28
Azimuth
Unknown
Elevation
Unknown
Doppler factor
Unknown
Orbital elements
Apogee altitude
28,580.83 km
Perigee altitude
493.495 km
Semi-major axis
20,915.3 km
Eccentricity
0.67145
Inclination
10.8088°
RAAN
82.7458°
Arg. of periapsis
152.6637°
True anomaly
201.97142°
Mean anomaly
255.5619°
Eccentric anomaly
227.29219°
Mean motion
0.71754 °/min
Orbital period
501.71 mins
BSTAR
0.016776
Loading maneuver chart data...
Computing Atmospheric mass density...
Loading historical data...
Loading historical data...
Loading historical data...
Loading historical data...
Loading historical data...
Loading historical data...
Loading historical data...

Documentation

Showing up to 5 results
|